Location: The Saddle
(36.8333°N, 80.3417°W)
Time: 18:23:41
(UTC-04:00)

BlueWalker 3 - Pass Details

Date: 21 October 2024
Orbit: 471 x 482 km, 53.2° (Epoch: 02 November)

Event Time Altitude Azimuth Distance (km) Brightness Sun altitude
Exits shadow 06:20:00 13° 333° (NNW) 1,464 4.0 -15.7°
Maximum altitude 06:22:55 34° 36° (NE) 793 3.2 -15.1°
Drops below altitude 10° 06:26:18 10° 103° (ESE) 1,628 5.9 -14.4°
Sets 06:28:34 0° 113° (ESE) 2,504 6.9 -14.0°
